TDRS 7

Last updated on Sun Jun 21 2026 00:02:59 GMT+0000 (Coordinated Universal Time)

1 23613U 95035B 26170.98181670 -.00000250 00000+0 00000+0 0 9999 2 23613 13.3760 348.1707 0011579 83.0115 279.2998 1.00280526113283
UTC large
Height (km)
Speed (km/s)
/
Latitude / Longitude
Inclination (degrees)
Orbital Period (minutes)
Azimuth
Elevation
Range (km)
Doppler Factor

Next 0 passes for location: London (51.5072 / 0.1276)

No passes found over London.
TDRS 7